Index of /20260420/WXO-DD/model_rdps/10km/06/043
Name Last modified Size Description
Parent Directory -
20260420T06Z_MSC_RDPS_AbsoluteVorticity_IsbL-0250_RLatLon0.09_PT043H.grib2 2026-04-20 08:52 611K
20260420T06Z_MSC_RDPS_AbsoluteVorticity_IsbL-0500_RLatLon0.09_PT043H.grib2 2026-04-20 08:52 568K
20260420T06Z_MSC_RDPS_AbsoluteVorticity_IsbL-0700_RLatLon0.09_PT043H.grib2 2026-04-20 08:52 624K
20260420T06Z_MSC_RDPS_AbsoluteVorticity_IsbL-0850_RLatLon0.09_PT043H.grib2 2026-04-20 08:52 787K
20260420T06Z_MSC_RDPS_AirTemp_AGL-120m_RLatLon0.09_PT043H.grib2 2026-04-20 08:52 374K
20260420T06Z_MSC_RDPS_AirTemp_AGL-2m_RLatLon0.09_PT043H.grib2 2026-04-20 08:52 631K
20260420T06Z_MSC_RDPS_AirTemp_AGL-40m_RLatLon0.09_PT043H.grib2 2026-04-20 08:52 387K
20260420T06Z_MSC_RDPS_AirTemp_AGL-80m_RLatLon0.09_PT043H.grib2 2026-04-20 08:52 379K
20260420T06Z_MSC_RDPS_AirTemp_IsbL-0001_RLatLon0.09_PT043H.grib2 2026-04-20 08:52 229K
20260420T06Z_MSC_RDPS_AirTemp_IsbL-0005_RLatLon0.09_PT043H.grib2 2026-04-20 08:52 333K
20260420T06Z_MSC_RDPS_AirTemp_IsbL-0010_RLatLon0.09_PT043H.grib2 2026-04-20 08:52 307K
20260420T06Z_MSC_RDPS_AirTemp_IsbL-0020_RLatLon0.09_PT043H.grib2 2026-04-20 08:52 328K
20260420T06Z_MSC_RDPS_AirTemp_IsbL-0030_RLatLon0.09_PT043H.grib2 2026-04-20 08:52 351K
20260420T06Z_MSC_RDPS_AirTemp_IsbL-0050_RLatLon0.09_PT043H.grib2 2026-04-20 08:52 331K
20260420T06Z_MSC_RDPS_AirTemp_IsbL-0100_RLatLon0.09_PT043H.grib2 2026-04-20 08:52 439K
20260420T06Z_MSC_RDPS_AirTemp_IsbL-0150_RLatLon0.09_PT043H.grib2 2026-04-20 08:52 433K
20260420T06Z_MSC_RDPS_AirTemp_IsbL-0175_RLatLon0.09_PT043H.grib2 2026-04-20 08:52 429K
20260420T06Z_MSC_RDPS_AirTemp_IsbL-0200_RLatLon0.09_PT043H.grib2 2026-04-20 08:52 430K
20260420T06Z_MSC_RDPS_AirTemp_IsbL-0225_RLatLon0.09_PT043H.grib2 2026-04-20 08:52 425K
20260420T06Z_MSC_RDPS_AirTemp_IsbL-0250_RLatLon0.09_PT043H.grib2 2026-04-20 08:52 424K
20260420T06Z_MSC_RDPS_AirTemp_IsbL-0275_RLatLon0.09_PT043H.grib2 2026-04-20 08:52 402K
20260420T06Z_MSC_RDPS_AirTemp_IsbL-0300_RLatLon0.09_PT043H.grib2 2026-04-20 08:52 408K
20260420T06Z_MSC_RDPS_AirTemp_IsbL-0350_RLatLon0.09_PT043H.grib2 2026-04-20 08:52 425K
20260420T06Z_MSC_RDPS_AirTemp_IsbL-0400_RLatLon0.09_PT043H.grib2 2026-04-20 08:52 395K
20260420T06Z_MSC_RDPS_AirTemp_IsbL-0450_RLatLon0.09_PT043H.grib2 2026-04-20 08:52 404K
20260420T06Z_MSC_RDPS_AirTemp_IsbL-0500_RLatLon0.09_PT043H.grib2 2026-04-20 08:52 419K
20260420T06Z_MSC_RDPS_AirTemp_IsbL-0550_RLatLon0.09_PT043H.grib2 2026-04-20 08:52 439K
20260420T06Z_MSC_RDPS_AirTemp_IsbL-0600_RLatLon0.09_PT043H.grib2 2026-04-20 08:52 457K
20260420T06Z_MSC_RDPS_AirTemp_IsbL-0650_RLatLon0.09_PT043H.grib2 2026-04-20 08:52 469K
20260420T06Z_MSC_RDPS_AirTemp_IsbL-0700_RLatLon0.09_PT043H.grib2 2026-04-20 08:52 489K
20260420T06Z_MSC_RDPS_AirTemp_IsbL-0750_RLatLon0.09_PT043H.grib2 2026-04-20 08:52 527K
20260420T06Z_MSC_RDPS_AirTemp_IsbL-0800_RLatLon0.09_PT043H.grib2 2026-04-20 08:52 460K
20260420T06Z_MSC_RDPS_AirTemp_IsbL-0850_RLatLon0.09_PT043H.grib2 2026-04-20 08:52 502K
20260420T06Z_MSC_RDPS_AirTemp_IsbL-0875_RLatLon0.09_PT043H.grib2 2026-04-20 08:52 510K
20260420T06Z_MSC_RDPS_AirTemp_IsbL-0900_RLatLon0.09_PT043H.grib2 2026-04-20 08:52 514K
20260420T06Z_MSC_RDPS_AirTemp_IsbL-0925_RLatLon0.09_PT043H.grib2 2026-04-20 08:52 513K
20260420T06Z_MSC_RDPS_AirTemp_IsbL-0950_RLatLon0.09_PT043H.grib2 2026-04-20 08:52 519K
20260420T06Z_MSC_RDPS_AirTemp_IsbL-0970_RLatLon0.09_PT043H.grib2 2026-04-20 08:52 522K
20260420T06Z_MSC_RDPS_AirTemp_IsbL-0985_RLatLon0.09_PT043H.grib2 2026-04-20 08:52 516K
20260420T06Z_MSC_RDPS_AirTemp_IsbL-1000_RLatLon0.09_PT043H.grib2 2026-04-20 08:52 499K
20260420T06Z_MSC_RDPS_AirTemp_IsbL-1015_RLatLon0.09_PT043H.grib2 2026-04-20 08:52 493K
20260420T06Z_MSC_RDPS_Albedo_Sfc_RLatLon0.09_PT043H.grib2 2026-04-20 08:52 165K
20260420T06Z_MSC_RDPS_CAPE_Sfc_RLatLon0.09_PT043H.grib2 2026-04-20 08:52 1.7M
20260420T06Z_MSC_RDPS_CIN_Sfc_RLatLon0.09_PT043H.grib2 2026-04-20 08:52 1.2M
20260420T06Z_MSC_RDPS_CloudWater_EAtm_RLatLon0.09_PT043H.grib2 2026-04-20 08:52 218K
20260420T06Z_MSC_RDPS_ConvectivePrecip-Accum_Sfc_RLatLon0.09_PT043H.grib2 2026-04-20 08:52 1.1M
20260420T06Z_MSC_RDPS_DewPointDepression_AGL-2m_RLatLon0.09_PT043H.grib2 2026-04-20 08:52 410K
20260420T06Z_MSC_RDPS_DewPointDepression_IsbL-0001_RLatLon0.09_PT043H.grib2 2026-04-20 08:52 193
20260420T06Z_MSC_RDPS_DewPointDepression_IsbL-0005_RLatLon0.09_PT043H.grib2 2026-04-20 08:52 193
20260420T06Z_MSC_RDPS_DewPointDepression_IsbL-0010_RLatLon0.09_PT043H.grib2 2026-04-20 08:52 193
20260420T06Z_MSC_RDPS_DewPointDepression_IsbL-0020_RLatLon0.09_PT043H.grib2 2026-04-20 08:52 193
20260420T06Z_MSC_RDPS_DewPointDepression_IsbL-0030_RLatLon0.09_PT043H.grib2 2026-04-20 08:52 193
20260420T06Z_MSC_RDPS_DewPointDepression_IsbL-0050_RLatLon0.09_PT043H.grib2 2026-04-20 08:52 91K
20260420T06Z_MSC_RDPS_DewPointDepression_IsbL-0100_RLatLon0.09_PT043H.grib2 2026-04-20 08:52 125K
20260420T06Z_MSC_RDPS_DewPointDepression_IsbL-0150_RLatLon0.09_PT043H.grib2 2026-04-20 08:52 154K
20260420T06Z_MSC_RDPS_DewPointDepression_IsbL-0175_RLatLon0.09_PT043H.grib2 2026-04-20 08:52 196K
20260420T06Z_MSC_RDPS_DewPointDepression_IsbL-0200_RLatLon0.09_PT043H.grib2 2026-04-20 08:52 235K
20260420T06Z_MSC_RDPS_DewPointDepression_IsbL-0225_RLatLon0.09_PT043H.grib2 2026-04-20 08:52 265K
20260420T06Z_MSC_RDPS_DewPointDepression_IsbL-0250_RLatLon0.09_PT043H.grib2 2026-04-20 08:52 304K
20260420T06Z_MSC_RDPS_DewPointDepression_IsbL-0275_RLatLon0.09_PT043H.grib2 2026-04-20 08:52 314K
20260420T06Z_MSC_RDPS_DewPointDepression_IsbL-0300_RLatLon0.09_PT043H.grib2 2026-04-20 08:52 335K
20260420T06Z_MSC_RDPS_DewPointDepression_IsbL-0350_RLatLon0.09_PT043H.grib2 2026-04-20 08:52 343K
20260420T06Z_MSC_RDPS_DewPointDepression_IsbL-0400_RLatLon0.09_PT043H.grib2 2026-04-20 08:52 354K
20260420T06Z_MSC_RDPS_DewPointDepression_IsbL-0450_RLatLon0.09_PT043H.grib2 2026-04-20 08:52 364K
20260420T06Z_MSC_RDPS_DewPointDepression_IsbL-0500_RLatLon0.09_PT043H.grib2 2026-04-20 08:52 375K
20260420T06Z_MSC_RDPS_DewPointDepression_IsbL-0550_RLatLon0.09_PT043H.grib2 2026-04-20 08:52 392K
20260420T06Z_MSC_RDPS_DewPointDepression_IsbL-0600_RLatLon0.09_PT043H.grib2 2026-04-20 08:52 402K
20260420T06Z_MSC_RDPS_DewPointDepression_IsbL-0650_RLatLon0.09_PT043H.grib2 2026-04-20 08:52 399K
20260420T06Z_MSC_RDPS_DewPointDepression_IsbL-0700_RLatLon0.09_PT043H.grib2 2026-04-20 08:52 402K
20260420T06Z_MSC_RDPS_DewPointDepression_IsbL-0750_RLatLon0.09_PT043H.grib2 2026-04-20 08:52 421K
20260420T06Z_MSC_RDPS_DewPointDepression_IsbL-0800_RLatLon0.09_PT043H.grib2 2026-04-20 08:52 455K
20260420T06Z_MSC_RDPS_DewPointDepression_IsbL-0850_RLatLon0.09_PT043H.grib2 2026-04-20 08:52 471K
20260420T06Z_MSC_RDPS_DewPointDepression_IsbL-0875_RLatLon0.09_PT043H.grib2 2026-04-20 08:52 463K
20260420T06Z_MSC_RDPS_DewPointDepression_IsbL-0900_RLatLon0.09_PT043H.grib2 2026-04-20 08:52 456K
20260420T06Z_MSC_RDPS_DewPointDepression_IsbL-0925_RLatLon0.09_PT043H.grib2 2026-04-20 08:52 448K
20260420T06Z_MSC_RDPS_DewPointDepression_IsbL-0950_RLatLon0.09_PT043H.grib2 2026-04-20 08:52 442K
20260420T06Z_MSC_RDPS_DewPointDepression_IsbL-0970_RLatLon0.09_PT043H.grib2 2026-04-20 08:52 436K
20260420T06Z_MSC_RDPS_DewPointDepression_IsbL-0985_RLatLon0.09_PT043H.grib2 2026-04-20 08:52 431K
20260420T06Z_MSC_RDPS_DewPointDepression_IsbL-1000_RLatLon0.09_PT043H.grib2 2026-04-20 08:52 422K
20260420T06Z_MSC_RDPS_DewPointDepression_IsbL-1015_RLatLon0.09_PT043H.grib2 2026-04-20 08:52 413K
20260420T06Z_MSC_RDPS_DewPoint_AGL-2m_RLatLon0.09_PT043H.grib2 2026-04-20 08:52 394K
20260420T06Z_MSC_RDPS_DownwardLongwaveRadiationFlux-Accum_Sfc_RLatLon0.09_PT043H.grib2 2026-04-20 08:52 387K
20260420T06Z_MSC_RDPS_DownwardShortwaveRadiationFlux-Accum_NTAtm_RLatLon0.09_PT043H.grib2 2026-04-20 08:52 145K
20260420T06Z_MSC_RDPS_DownwardShortwaveRadiationFlux-Accum_Sfc_RLatLon0.09_PT043H.grib2 2026-04-20 08:52 537K
20260420T06Z_MSC_RDPS_FreezingRain-Accum1h_Sfc_RLatLon0.09_PT043H.grib2 2026-04-20 08:52 18K
20260420T06Z_MSC_RDPS_FreezingRain-Accum_Sfc_RLatLon0.09_PT043H.grib2 2026-04-20 08:52 103K
20260420T06Z_MSC_RDPS_GeopotentialHeight_IsbL-0001_RLatLon0.09_PT043H.grib2 2026-04-20 08:52 271K
20260420T06Z_MSC_RDPS_GeopotentialHeight_IsbL-0005_RLatLon0.09_PT043H.grib2 2026-04-20 08:52 238K
20260420T06Z_MSC_RDPS_GeopotentialHeight_IsbL-0010_RLatLon0.09_PT043H.grib2 2026-04-20 08:52 313K
20260420T06Z_MSC_RDPS_GeopotentialHeight_IsbL-0020_RLatLon0.09_PT043H.grib2 2026-04-20 08:52 309K
20260420T06Z_MSC_RDPS_GeopotentialHeight_IsbL-0030_RLatLon0.09_PT043H.grib2 2026-04-20 08:52 312K
20260420T06Z_MSC_RDPS_GeopotentialHeight_IsbL-0050_RLatLon0.09_PT043H.grib2 2026-04-20 08:52 347K
20260420T06Z_MSC_RDPS_GeopotentialHeight_IsbL-0100_RLatLon0.09_PT043H.grib2 2026-04-20 08:52 294K
20260420T06Z_MSC_RDPS_GeopotentialHeight_IsbL-0150_RLatLon0.09_PT043H.grib2 2026-04-20 08:52 234K
20260420T06Z_MSC_RDPS_GeopotentialHeight_IsbL-0175_RLatLon0.09_PT043H.grib2 2026-04-20 08:52 268K
20260420T06Z_MSC_RDPS_GeopotentialHeight_IsbL-0200_RLatLon0.09_PT043H.grib2 2026-04-20 08:52 271K
20260420T06Z_MSC_RDPS_GeopotentialHeight_IsbL-0225_RLatLon0.09_PT043H.grib2 2026-04-20 08:52 271K
20260420T06Z_MSC_RDPS_GeopotentialHeight_IsbL-0250_RLatLon0.09_PT043H.grib2 2026-04-20 08:52 272K
20260420T06Z_MSC_RDPS_GeopotentialHeight_IsbL-0275_RLatLon0.09_PT043H.grib2 2026-04-20 08:52 269K
20260420T06Z_MSC_RDPS_GeopotentialHeight_IsbL-0300_RLatLon0.09_PT043H.grib2 2026-04-20 08:52 269K
20260420T06Z_MSC_RDPS_GeopotentialHeight_IsbL-0350_RLatLon0.09_PT043H.grib2 2026-04-20 08:52 235K
20260420T06Z_MSC_RDPS_GeopotentialHeight_IsbL-0400_RLatLon0.09_PT043H.grib2 2026-04-20 08:52 232K
20260420T06Z_MSC_RDPS_GeopotentialHeight_IsbL-0450_RLatLon0.09_PT043H.grib2 2026-04-20 08:52 302K
20260420T06Z_MSC_RDPS_GeopotentialHeight_IsbL-0500_RLatLon0.09_PT043H.grib2 2026-04-20 08:52 298K
20260420T06Z_MSC_RDPS_GeopotentialHeight_IsbL-0550_RLatLon0.09_PT043H.grib2 2026-04-20 08:52 294K
20260420T06Z_MSC_RDPS_GeopotentialHeight_IsbL-0600_RLatLon0.09_PT043H.grib2 2026-04-20 08:52 290K
20260420T06Z_MSC_RDPS_GeopotentialHeight_IsbL-0650_RLatLon0.09_PT043H.grib2 2026-04-20 08:52 260K
20260420T06Z_MSC_RDPS_GeopotentialHeight_IsbL-0700_RLatLon0.09_PT043H.grib2 2026-04-20 08:52 257K
20260420T06Z_MSC_RDPS_GeopotentialHeight_IsbL-0750_RLatLon0.09_PT043H.grib2 2026-04-20 08:52 258K
20260420T06Z_MSC_RDPS_GeopotentialHeight_IsbL-0800_RLatLon0.09_PT043H.grib2 2026-04-20 08:52 262K
20260420T06Z_MSC_RDPS_GeopotentialHeight_IsbL-0850_RLatLon0.09_PT043H.grib2 2026-04-20 08:52 267K
20260420T06Z_MSC_RDPS_GeopotentialHeight_IsbL-0875_RLatLon0.09_PT043H.grib2 2026-04-20 08:52 270K
20260420T06Z_MSC_RDPS_GeopotentialHeight_IsbL-0900_RLatLon0.09_PT043H.grib2 2026-04-20 08:52 273K
20260420T06Z_MSC_RDPS_GeopotentialHeight_IsbL-0925_RLatLon0.09_PT043H.grib2 2026-04-20 08:52 276K
20260420T06Z_MSC_RDPS_GeopotentialHeight_IsbL-0950_RLatLon0.09_PT043H.grib2 2026-04-20 08:52 278K
20260420T06Z_MSC_RDPS_GeopotentialHeight_IsbL-0970_RLatLon0.09_PT043H.grib2 2026-04-20 08:52 283K
20260420T06Z_MSC_RDPS_GeopotentialHeight_IsbL-0985_RLatLon0.09_PT043H.grib2 2026-04-20 08:52 291K
20260420T06Z_MSC_RDPS_GeopotentialHeight_IsbL-1000_RLatLon0.09_PT043H.grib2 2026-04-20 08:52 300K
20260420T06Z_MSC_RDPS_GeopotentialHeight_IsbL-1015_RLatLon0.09_PT043H.grib2 2026-04-20 08:52 311K
20260420T06Z_MSC_RDPS_Humidex_Sfc_RLatLon0.09_PT043H.grib2 2026-04-20 08:52 2.4M
20260420T06Z_MSC_RDPS_IcePellets-Accum1h_Sfc_RLatLon0.09_PT043H.grib2 2026-04-20 08:52 8.8K
20260420T06Z_MSC_RDPS_IcePellets-Accum_Sfc_RLatLon0.09_PT043H.grib2 2026-04-20 08:52 21K
20260420T06Z_MSC_RDPS_KIndex_Sfc_RLatLon0.09_PT043H.grib2 2026-04-20 08:52 2.5M
20260420T06Z_MSC_RDPS_LatentHeatNetFlux_Sfc_RLatLon0.09_PT043H.grib2 2026-04-20 08:52 335K
20260420T06Z_MSC_RDPS_LiftedIndex-MU-VT_IsbL-0500_RLatLon0.09_PT043H.grib2 2026-04-20 08:52 2.4M
20260420T06Z_MSC_RDPS_NetLongwaveRadiationFlux-Accum_Sfc_RLatLon0.09_PT043H.grib2 2026-04-20 08:52 527K
20260420T06Z_MSC_RDPS_NetShortwaveRadiationFlux-Accum_Sfc_RLatLon0.09_PT043H.grib2 2026-04-20 08:52 551K
20260420T06Z_MSC_RDPS_PlanetaryBoundaryLayerHeight_Sfc_RLatLon0.09_PT043H.grib2 2026-04-20 08:52 1.0M
20260420T06Z_MSC_RDPS_Precip-Accum1h_Sfc_RLatLon0.09_PT043H.grib2 2026-04-20 08:52 1.2M
20260420T06Z_MSC_RDPS_Precip-Accum_Sfc_RLatLon0.09_PT043H.grib2 2026-04-20 08:52 1.9M
20260420T06Z_MSC_RDPS_PrecipRate_Sfc_RLatLon0.09_PT043H.grib2 2026-04-20 08:52 182K
20260420T06Z_MSC_RDPS_PrecipType-Instant_Sfc_RLatLon0.09_PT043H.grib2 2026-04-20 08:52 585K
20260420T06Z_MSC_RDPS_Pressure-Trend3h_Sfc_RLatLon0.09_PT043H.grib2 2026-04-20 08:52 1.2M
20260420T06Z_MSC_RDPS_Pressure_MSL_RLatLon0.09_PT043H.grib2 2026-04-20 08:52 329K
20260420T06Z_MSC_RDPS_Pressure_PVU-1.5_RLatLon0.09_PT043H.grib2 2026-04-20 08:52 2.3M
20260420T06Z_MSC_RDPS_Pressure_PVU-1_RLatLon0.09_PT043H.grib2 2026-04-20 08:52 2.4M
20260420T06Z_MSC_RDPS_Pressure_PVU-2_RLatLon0.09_PT043H.grib2 2026-04-20 08:52 2.4M
20260420T06Z_MSC_RDPS_Pressure_Sfc_RLatLon0.09_PT043H.grib2 2026-04-20 08:52 500K
20260420T06Z_MSC_RDPS_RadiativeTemp_Sfc_RLatLon0.09_PT043H.grib2 2026-04-20 08:52 314K
20260420T06Z_MSC_RDPS_Rain-Accum1h_Sfc_RLatLon0.09_PT043H.grib2 2026-04-20 08:52 611K
20260420T06Z_MSC_RDPS_Rain-Accum_Sfc_RLatLon0.09_PT043H.grib2 2026-04-20 08:52 1.5M
20260420T06Z_MSC_RDPS_RelativeHumidity_AGL-2m_RLatLon0.09_PT043H.grib2 2026-04-20 08:52 1.0M
20260420T06Z_MSC_RDPS_RelativeHumidity_IsbL-0010_RLatLon0.09_PT043H.grib2 2026-04-20 08:52 626K
20260420T06Z_MSC_RDPS_RelativeHumidity_IsbL-0020_RLatLon0.09_PT043H.grib2 2026-04-20 08:52 572K
20260420T06Z_MSC_RDPS_RelativeHumidity_IsbL-0030_RLatLon0.09_PT043H.grib2 2026-04-20 08:52 549K
20260420T06Z_MSC_RDPS_RelativeHumidity_IsbL-0050_RLatLon0.09_PT043H.grib2 2026-04-20 08:52 390K
20260420T06Z_MSC_RDPS_RelativeHumidity_IsbL-0100_RLatLon0.09_PT043H.grib2 2026-04-20 08:52 269K
20260420T06Z_MSC_RDPS_RelativeHumidity_IsbL-0150_RLatLon0.09_PT043H.grib2 2026-04-20 08:52 383K
20260420T06Z_MSC_RDPS_RelativeHumidity_IsbL-0175_RLatLon0.09_PT043H.grib2 2026-04-20 08:52 479K
20260420T06Z_MSC_RDPS_RelativeHumidity_IsbL-0200_RLatLon0.09_PT043H.grib2 2026-04-20 08:52 568K
20260420T06Z_MSC_RDPS_RelativeHumidity_IsbL-0225_RLatLon0.09_PT043H.grib2 2026-04-20 08:52 642K
20260420T06Z_MSC_RDPS_RelativeHumidity_IsbL-0250_RLatLon0.09_PT043H.grib2 2026-04-20 08:52 705K
20260420T06Z_MSC_RDPS_RelativeHumidity_IsbL-0275_RLatLon0.09_PT043H.grib2 2026-04-20 08:52 720K
20260420T06Z_MSC_RDPS_RelativeHumidity_IsbL-0300_RLatLon0.09_PT043H.grib2 2026-04-20 08:52 758K
20260420T06Z_MSC_RDPS_RelativeHumidity_IsbL-0350_RLatLon0.09_PT043H.grib2 2026-04-20 08:52 779K
20260420T06Z_MSC_RDPS_RelativeHumidity_IsbL-0400_RLatLon0.09_PT043H.grib2 2026-04-20 08:52 795K
20260420T06Z_MSC_RDPS_RelativeHumidity_IsbL-0450_RLatLon0.09_PT043H.grib2 2026-04-20 08:52 808K
20260420T06Z_MSC_RDPS_RelativeHumidity_IsbL-0500_RLatLon0.09_PT043H.grib2 2026-04-20 08:52 834K
20260420T06Z_MSC_RDPS_RelativeHumidity_IsbL-0550_RLatLon0.09_PT043H.grib2 2026-04-20 08:52 857K
20260420T06Z_MSC_RDPS_RelativeHumidity_IsbL-0600_RLatLon0.09_PT043H.grib2 2026-04-20 08:52 876K
20260420T06Z_MSC_RDPS_RelativeHumidity_IsbL-0650_RLatLon0.09_PT043H.grib2 2026-04-20 08:52 869K
20260420T06Z_MSC_RDPS_RelativeHumidity_IsbL-0700_RLatLon0.09_PT043H.grib2 2026-04-20 08:52 887K
20260420T06Z_MSC_RDPS_RelativeHumidity_IsbL-0750_RLatLon0.09_PT043H.grib2 2026-04-20 08:52 916K
20260420T06Z_MSC_RDPS_RelativeHumidity_IsbL-0800_RLatLon0.09_PT043H.grib2 2026-04-20 08:52 1.0M
20260420T06Z_MSC_RDPS_RelativeHumidity_IsbL-0850_RLatLon0.09_PT043H.grib2 2026-04-20 08:52 1.0M
20260420T06Z_MSC_RDPS_RelativeHumidity_IsbL-0875_RLatLon0.09_PT043H.grib2 2026-04-20 08:52 1.0M
20260420T06Z_MSC_RDPS_RelativeHumidity_IsbL-0900_RLatLon0.09_PT043H.grib2 2026-04-20 08:52 1.0M
20260420T06Z_MSC_RDPS_RelativeHumidity_IsbL-0925_RLatLon0.09_PT043H.grib2 2026-04-20 08:52 1.1M
20260420T06Z_MSC_RDPS_RelativeHumidity_IsbL-0950_RLatLon0.09_PT043H.grib2 2026-04-20 08:52 1.1M
20260420T06Z_MSC_RDPS_RelativeHumidity_IsbL-0970_RLatLon0.09_PT043H.grib2 2026-04-20 08:52 1.0M
20260420T06Z_MSC_RDPS_RelativeHumidity_IsbL-0985_RLatLon0.09_PT043H.grib2 2026-04-20 08:52 1.0M
20260420T06Z_MSC_RDPS_RelativeHumidity_IsbL-1000_RLatLon0.09_PT043H.grib2 2026-04-20 08:52 1.0M
20260420T06Z_MSC_RDPS_RelativeHumidity_IsbL-1015_RLatLon0.09_PT043H.grib2 2026-04-20 08:52 1.0M
20260420T06Z_MSC_RDPS_Runoff-Accum_Sfc_RLatLon0.09_PT043H.grib2 2026-04-20 08:52 51K
20260420T06Z_MSC_RDPS_SWEATIndex_Sfc_RLatLon0.09_PT043H.grib2 2026-04-20 08:52 2.4M
20260420T06Z_MSC_RDPS_SeeingIndex_EAtm_RLatLon0.09_PT043H.grib2 2026-04-20 08:52 1.0M
20260420T06Z_MSC_RDPS_SensibleHeatNetFlux_Sfc_RLatLon0.09_PT043H.grib2 2026-04-20 08:52 308K
20260420T06Z_MSC_RDPS_ShowalterIndex_IsbL-0500_RLatLon0.09_PT043H.grib2 2026-04-20 08:52 2.6M
20260420T06Z_MSC_RDPS_SkyTransparencyIndex_EAtm_RLatLon0.09_PT043H.grib2 2026-04-20 08:52 718K
20260420T06Z_MSC_RDPS_Snow-Accum1h_Sfc_RLatLon0.09_PT043H.grib2 2026-04-20 08:52 452K
20260420T06Z_MSC_RDPS_Snow-Accum_Sfc_RLatLon0.09_PT043H.grib2 2026-04-20 08:52 631K
20260420T06Z_MSC_RDPS_SnowDensity_Sfc_RLatLon0.09_PT043H.grib2 2026-04-20 08:52 173K
20260420T06Z_MSC_RDPS_SnowDepth_Sfc_RLatLon0.09_PT043H.grib2 2026-04-20 08:52 706K
20260420T06Z_MSC_RDPS_SoilTemp_DBS-0to10cm_RLatLon0.09_PT043H.grib2 2026-04-20 08:52 239K
20260420T06Z_MSC_RDPS_SoilTemp_Sfc_RLatLon0.09_PT043H.grib2 2026-04-20 08:52 274K
20260420T06Z_MSC_RDPS_SoilVolumetricIceContent_Sfc_RLatLon0.09_PT043H.grib2 2026-04-20 08:52 170K
20260420T06Z_MSC_RDPS_SoilVolumetricWaterContent_DBS-0to10cm_RLatLon0.09_PT043H.grib2 2026-04-20 08:52 250K
20260420T06Z_MSC_RDPS_SoilVolumetricWaterContent_DBS-0to1cm_RLatLon0.09_PT043H.grib2 2026-04-20 08:52 337K
20260420T06Z_MSC_RDPS_SpecificHumidity_AGL-120m_RLatLon0.09_PT043H.grib2 2026-04-20 08:52 475K
20260420T06Z_MSC_RDPS_SpecificHumidity_AGL-2m_RLatLon0.09_PT043H.grib2 2026-04-20 08:52 643K
20260420T06Z_MSC_RDPS_SpecificHumidity_AGL-40m_RLatLon0.09_PT043H.grib2 2026-04-20 08:52 482K
20260420T06Z_MSC_RDPS_SpecificHumidity_AGL-80m_RLatLon0.09_PT043H.grib2 2026-04-20 08:52 477K
20260420T06Z_MSC_RDPS_SpecificHumidity_IsbL-0001_RLatLon0.09_PT043H.grib2 2026-04-20 08:52 322K
20260420T06Z_MSC_RDPS_SpecificHumidity_IsbL-0005_RLatLon0.09_PT043H.grib2 2026-04-20 08:52 408K
20260420T06Z_MSC_RDPS_SpecificHumidity_IsbL-0010_RLatLon0.09_PT043H.grib2 2026-04-20 08:52 378K
20260420T06Z_MSC_RDPS_SpecificHumidity_IsbL-0020_RLatLon0.09_PT043H.grib2 2026-04-20 08:52 374K
20260420T06Z_MSC_RDPS_SpecificHumidity_IsbL-0030_RLatLon0.09_PT043H.grib2 2026-04-20 08:52 478K
20260420T06Z_MSC_RDPS_SpecificHumidity_IsbL-0050_RLatLon0.09_PT043H.grib2 2026-04-20 08:52 472K
20260420T06Z_MSC_RDPS_SpecificHumidity_IsbL-0100_RLatLon0.09_PT043H.grib2 2026-04-20 08:52 414K
20260420T06Z_MSC_RDPS_SpecificHumidity_IsbL-0150_RLatLon0.09_PT043H.grib2 2026-04-20 08:52 445K
20260420T06Z_MSC_RDPS_SpecificHumidity_IsbL-0175_RLatLon0.09_PT043H.grib2 2026-04-20 08:52 539K
20260420T06Z_MSC_RDPS_SpecificHumidity_IsbL-0200_RLatLon0.09_PT043H.grib2 2026-04-20 08:52 559K
20260420T06Z_MSC_RDPS_SpecificHumidity_IsbL-0225_RLatLon0.09_PT043H.grib2 2026-04-20 08:52 565K
20260420T06Z_MSC_RDPS_SpecificHumidity_IsbL-0250_RLatLon0.09_PT043H.grib2 2026-04-20 08:52 566K
20260420T06Z_MSC_RDPS_SpecificHumidity_IsbL-0275_RLatLon0.09_PT043H.grib2 2026-04-20 08:52 480K
20260420T06Z_MSC_RDPS_SpecificHumidity_IsbL-0300_RLatLon0.09_PT043H.grib2 2026-04-20 08:52 550K
20260420T06Z_MSC_RDPS_SpecificHumidity_IsbL-0350_RLatLon0.09_PT043H.grib2 2026-04-20 08:52 543K
20260420T06Z_MSC_RDPS_SpecificHumidity_IsbL-0400_RLatLon0.09_PT043H.grib2 2026-04-20 08:52 525K
20260420T06Z_MSC_RDPS_SpecificHumidity_IsbL-0450_RLatLon0.09_PT043H.grib2 2026-04-20 08:52 583K
20260420T06Z_MSC_RDPS_SpecificHumidity_IsbL-0500_RLatLon0.09_PT043H.grib2 2026-04-20 08:52 526K
20260420T06Z_MSC_RDPS_SpecificHumidity_IsbL-0550_RLatLon0.09_PT043H.grib2 2026-04-20 08:52 588K
20260420T06Z_MSC_RDPS_SpecificHumidity_IsbL-0600_RLatLon0.09_PT043H.grib2 2026-04-20 08:52 656K
20260420T06Z_MSC_RDPS_SpecificHumidity_IsbL-0650_RLatLon0.09_PT043H.grib2 2026-04-20 08:52 564K
20260420T06Z_MSC_RDPS_SpecificHumidity_IsbL-0700_RLatLon0.09_PT043H.grib2 2026-04-20 08:52 597K
20260420T06Z_MSC_RDPS_SpecificHumidity_IsbL-0750_RLatLon0.09_PT043H.grib2 2026-04-20 08:52 647K
20260420T06Z_MSC_RDPS_SpecificHumidity_IsbL-0800_RLatLon0.09_PT043H.grib2 2026-04-20 08:52 723K
20260420T06Z_MSC_RDPS_SpecificHumidity_IsbL-0850_RLatLon0.09_PT043H.grib2 2026-04-20 08:52 799K
20260420T06Z_MSC_RDPS_SpecificHumidity_IsbL-0875_RLatLon0.09_PT043H.grib2 2026-04-20 08:52 813K
20260420T06Z_MSC_RDPS_SpecificHumidity_IsbL-0900_RLatLon0.09_PT043H.grib2 2026-04-20 08:52 822K
20260420T06Z_MSC_RDPS_SpecificHumidity_IsbL-0925_RLatLon0.09_PT043H.grib2 2026-04-20 08:52 826K
20260420T06Z_MSC_RDPS_SpecificHumidity_IsbL-0950_RLatLon0.09_PT043H.grib2 2026-04-20 08:52 688K
20260420T06Z_MSC_RDPS_SpecificHumidity_IsbL-0970_RLatLon0.09_PT043H.grib2 2026-04-20 08:52 681K
20260420T06Z_MSC_RDPS_SpecificHumidity_IsbL-0985_RLatLon0.09_PT043H.grib2 2026-04-20 08:52 673K
20260420T06Z_MSC_RDPS_SpecificHumidity_IsbL-1000_RLatLon0.09_PT043H.grib2 2026-04-20 08:52 663K
20260420T06Z_MSC_RDPS_SpecificHumidity_IsbL-1015_RLatLon0.09_PT043H.grib2 2026-04-20 08:52 655K
20260420T06Z_MSC_RDPS_SpecificHumidity_Sfc_RLatLon0.09_PT043H.grib2 2026-04-20 08:52 321K
20260420T06Z_MSC_RDPS_StormRelativeHelicity_EtaL-10000_RLatLon0.09_PT043H.grib2 2026-04-20 08:52 1.2M
20260420T06Z_MSC_RDPS_StormSeverityIndex_EtaL-10000_RLatLon0.09_PT043H.grib2 2026-04-20 08:52 1.2M
20260420T06Z_MSC_RDPS_Thickness_IsbL-0850to0700_RLatLon0.09_PT043H.grib2 2026-04-20 08:52 178K
20260420T06Z_MSC_RDPS_Thickness_IsbL-1000to0500_RLatLon0.09_PT043H.grib2 2026-04-20 08:52 202K
20260420T06Z_MSC_RDPS_Thickness_IsbL-1000to0850_RLatLon0.09_PT043H.grib2 2026-04-20 08:52 186K
20260420T06Z_MSC_RDPS_TotalCloudCover_Sfc_RLatLon0.09_PT043H.grib2 2026-04-20 08:52 647K
20260420T06Z_MSC_RDPS_TotalTotalsIndex_Sfc_RLatLon0.09_PT043H.grib2 2026-04-20 08:52 2.4M
20260420T06Z_MSC_RDPS_UVIndex-ClearSky_Sfc_RLatLon0.09_PT043H.grib2 2026-04-20 08:52 136K
20260420T06Z_MSC_RDPS_UVIndex_Sfc_RLatLon0.09_PT043H.grib2 2026-04-20 08:52 299K
20260420T06Z_MSC_RDPS_UpwardLongwaveRadiationFlux_NTAtm_RLatLon0.09_PT043H.grib2 2026-04-20 08:52 492K
20260420T06Z_MSC_RDPS_UpwardShortwaveRadiationFlux_NTAtm_RLatLon0.09_PT043H.grib2 2026-04-20 08:52 278K
20260420T06Z_MSC_RDPS_VerticalVelocity_IsbL-0250_RLatLon0.09_PT043H.grib2 2026-04-20 08:52 592K
20260420T06Z_MSC_RDPS_VerticalVelocity_IsbL-0500_RLatLon0.09_PT043H.grib2 2026-04-20 08:52 559K
20260420T06Z_MSC_RDPS_VerticalVelocity_IsbL-0700_RLatLon0.09_PT043H.grib2 2026-04-20 08:52 612K
20260420T06Z_MSC_RDPS_VerticalVelocity_IsbL-0850_RLatLon0.09_PT043H.grib2 2026-04-20 08:52 654K
20260420T06Z_MSC_RDPS_VerticalWindShear_EtaL-6500_RLatLon0.09_PT043H.grib2 2026-04-20 08:52 1.2M
20260420T06Z_MSC_RDPS_WindChill_Sfc_RLatLon0.09_PT043H.grib2 2026-04-20 08:52 1.2M
20260420T06Z_MSC_RDPS_WindDir_AGL-10m_RLatLon0.09_PT043H.grib2 2026-04-20 08:52 955K
20260420T06Z_MSC_RDPS_WindDir_AGL-120m_RLatLon0.09_PT043H.grib2 2026-04-20 08:52 601K
20260420T06Z_MSC_RDPS_WindDir_AGL-40m_RLatLon0.09_PT043H.grib2 2026-04-20 08:52 625K
20260420T06Z_MSC_RDPS_WindDir_AGL-80m_RLatLon0.09_PT043H.grib2 2026-04-20 08:52 610K
20260420T06Z_MSC_RDPS_WindDir_IsbL-0001_RLatLon0.09_PT043H.grib2 2026-04-20 08:52 263K
20260420T06Z_MSC_RDPS_WindDir_IsbL-0005_RLatLon0.09_PT043H.grib2 2026-04-20 08:52 357K
20260420T06Z_MSC_RDPS_WindDir_IsbL-0010_RLatLon0.09_PT043H.grib2 2026-04-20 08:52 396K
20260420T06Z_MSC_RDPS_WindDir_IsbL-0020_RLatLon0.09_PT043H.grib2 2026-04-20 08:52 412K
20260420T06Z_MSC_RDPS_WindDir_IsbL-0030_RLatLon0.09_PT043H.grib2 2026-04-20 08:52 409K
20260420T06Z_MSC_RDPS_WindDir_IsbL-0050_RLatLon0.09_PT043H.grib2 2026-04-20 08:52 420K
20260420T06Z_MSC_RDPS_WindDir_IsbL-0100_RLatLon0.09_PT043H.grib2 2026-04-20 08:52 425K
20260420T06Z_MSC_RDPS_WindDir_IsbL-0150_RLatLon0.09_PT043H.grib2 2026-04-20 08:52 423K
20260420T06Z_MSC_RDPS_WindDir_IsbL-0175_RLatLon0.09_PT043H.grib2 2026-04-20 08:52 442K
20260420T06Z_MSC_RDPS_WindDir_IsbL-0200_RLatLon0.09_PT043H.grib2 2026-04-20 08:52 452K
20260420T06Z_MSC_RDPS_WindDir_IsbL-0225_RLatLon0.09_PT043H.grib2 2026-04-20 08:52 450K
20260420T06Z_MSC_RDPS_WindDir_IsbL-0250_RLatLon0.09_PT043H.grib2 2026-04-20 08:52 445K
20260420T06Z_MSC_RDPS_WindDir_IsbL-0275_RLatLon0.09_PT043H.grib2 2026-04-20 08:52 466K
20260420T06Z_MSC_RDPS_WindDir_IsbL-0300_RLatLon0.09_PT043H.grib2 2026-04-20 08:52 463K
20260420T06Z_MSC_RDPS_WindDir_IsbL-0350_RLatLon0.09_PT043H.grib2 2026-04-20 08:52 483K
20260420T06Z_MSC_RDPS_WindDir_IsbL-0400_RLatLon0.09_PT043H.grib2 2026-04-20 08:52 503K
20260420T06Z_MSC_RDPS_WindDir_IsbL-0450_RLatLon0.09_PT043H.grib2 2026-04-20 08:52 519K
20260420T06Z_MSC_RDPS_WindDir_IsbL-0500_RLatLon0.09_PT043H.grib2 2026-04-20 08:52 543K
20260420T06Z_MSC_RDPS_WindDir_IsbL-0550_RLatLon0.09_PT043H.grib2 2026-04-20 08:52 564K
20260420T06Z_MSC_RDPS_WindDir_IsbL-0600_RLatLon0.09_PT043H.grib2 2026-04-20 08:52 592K
20260420T06Z_MSC_RDPS_WindDir_IsbL-0650_RLatLon0.09_PT043H.grib2 2026-04-20 08:52 634K
20260420T06Z_MSC_RDPS_WindDir_IsbL-0700_RLatLon0.09_PT043H.grib2 2026-04-20 08:52 674K
20260420T06Z_MSC_RDPS_WindDir_IsbL-0750_RLatLon0.09_PT043H.grib2 2026-04-20 08:52 721K
20260420T06Z_MSC_RDPS_WindDir_IsbL-0800_RLatLon0.09_PT043H.grib2 2026-04-20 08:52 795K
20260420T06Z_MSC_RDPS_WindDir_IsbL-0850_RLatLon0.09_PT043H.grib2 2026-04-20 08:52 871K
20260420T06Z_MSC_RDPS_WindDir_IsbL-0875_RLatLon0.09_PT043H.grib2 2026-04-20 08:52 892K
20260420T06Z_MSC_RDPS_WindDir_IsbL-0900_RLatLon0.09_PT043H.grib2 2026-04-20 08:52 902K
20260420T06Z_MSC_RDPS_WindDir_IsbL-0925_RLatLon0.09_PT043H.grib2 2026-04-20 08:52 909K
20260420T06Z_MSC_RDPS_WindDir_IsbL-0950_RLatLon0.09_PT043H.grib2 2026-04-20 08:52 907K
20260420T06Z_MSC_RDPS_WindDir_IsbL-0970_RLatLon0.09_PT043H.grib2 2026-04-20 08:52 910K
20260420T06Z_MSC_RDPS_WindDir_IsbL-0985_RLatLon0.09_PT043H.grib2 2026-04-20 08:52 917K
20260420T06Z_MSC_RDPS_WindDir_IsbL-1000_RLatLon0.09_PT043H.grib2 2026-04-20 08:52 930K
20260420T06Z_MSC_RDPS_WindDir_IsbL-1015_RLatLon0.09_PT043H.grib2 2026-04-20 08:52 948K
20260420T06Z_MSC_RDPS_WindGust-Max_AGL-10m_RLatLon0.09_PT043H.grib2 2026-04-20 08:52 954K
20260420T06Z_MSC_RDPS_WindGust-Min_AGL-10m_RLatLon0.09_PT043H.grib2 2026-04-20 08:52 1.0M
20260420T06Z_MSC_RDPS_WindGust_AGL-10m_RLatLon0.09_PT043H.grib2 2026-04-20 08:52 1.0M
20260420T06Z_MSC_RDPS_WindSpeed_AGL-10m_RLatLon0.09_PT043H.grib2 2026-04-20 08:52 842K
20260420T06Z_MSC_RDPS_WindSpeed_AGL-120m_RLatLon0.09_PT043H.grib2 2026-04-20 08:52 537K
20260420T06Z_MSC_RDPS_WindSpeed_AGL-40m_RLatLon0.09_PT043H.grib2 2026-04-20 08:52 544K
20260420T06Z_MSC_RDPS_WindSpeed_AGL-80m_RLatLon0.09_PT043H.grib2 2026-04-20 08:52 540K
20260420T06Z_MSC_RDPS_WindSpeed_IsbL-0001_RLatLon0.09_PT043H.grib2 2026-04-20 08:52 241K
20260420T06Z_MSC_RDPS_WindSpeed_IsbL-0005_RLatLon0.09_PT043H.grib2 2026-04-20 08:52 297K
20260420T06Z_MSC_RDPS_WindSpeed_IsbL-0010_RLatLon0.09_PT043H.grib2 2026-04-20 08:52 313K
20260420T06Z_MSC_RDPS_WindSpeed_IsbL-0020_RLatLon0.09_PT043H.grib2 2026-04-20 08:52 332K
20260420T06Z_MSC_RDPS_WindSpeed_IsbL-0030_RLatLon0.09_PT043H.grib2 2026-04-20 08:52 332K
20260420T06Z_MSC_RDPS_WindSpeed_IsbL-0050_RLatLon0.09_PT043H.grib2 2026-04-20 08:52 480K
20260420T06Z_MSC_RDPS_WindSpeed_IsbL-0100_RLatLon0.09_PT043H.grib2 2026-04-20 08:52 496K
20260420T06Z_MSC_RDPS_WindSpeed_IsbL-0150_RLatLon0.09_PT043H.grib2 2026-04-20 08:52 388K
20260420T06Z_MSC_RDPS_WindSpeed_IsbL-0175_RLatLon0.09_PT043H.grib2 2026-04-20 08:52 413K
20260420T06Z_MSC_RDPS_WindSpeed_IsbL-0200_RLatLon0.09_PT043H.grib2 2026-04-20 08:52 430K
20260420T06Z_MSC_RDPS_WindSpeed_IsbL-0225_RLatLon0.09_PT043H.grib2 2026-04-20 08:52 435K
20260420T06Z_MSC_RDPS_WindSpeed_IsbL-0250_RLatLon0.09_PT043H.grib2 2026-04-20 08:52 454K
20260420T06Z_MSC_RDPS_WindSpeed_IsbL-0275_RLatLon0.09_PT043H.grib2 2026-04-20 08:52 468K
20260420T06Z_MSC_RDPS_WindSpeed_IsbL-0300_RLatLon0.09_PT043H.grib2 2026-04-20 08:52 462K
20260420T06Z_MSC_RDPS_WindSpeed_IsbL-0350_RLatLon0.09_PT043H.grib2 2026-04-20 08:52 471K
20260420T06Z_MSC_RDPS_WindSpeed_IsbL-0400_RLatLon0.09_PT043H.grib2 2026-04-20 08:52 476K
20260420T06Z_MSC_RDPS_WindSpeed_IsbL-0450_RLatLon0.09_PT043H.grib2 2026-04-20 08:52 463K
20260420T06Z_MSC_RDPS_WindSpeed_IsbL-0500_RLatLon0.09_PT043H.grib2 2026-04-20 08:52 470K
20260420T06Z_MSC_RDPS_WindSpeed_IsbL-0550_RLatLon0.09_PT043H.grib2 2026-04-20 08:52 593K
20260420T06Z_MSC_RDPS_WindSpeed_IsbL-0600_RLatLon0.09_PT043H.grib2 2026-04-20 08:52 604K
20260420T06Z_MSC_RDPS_WindSpeed_IsbL-0650_RLatLon0.09_PT043H.grib2 2026-04-20 08:52 621K
20260420T06Z_MSC_RDPS_WindSpeed_IsbL-0700_RLatLon0.09_PT043H.grib2 2026-04-20 08:52 684K
20260420T06Z_MSC_RDPS_WindSpeed_IsbL-0750_RLatLon0.09_PT043H.grib2 2026-04-20 08:52 712K
20260420T06Z_MSC_RDPS_WindSpeed_IsbL-0800_RLatLon0.09_PT043H.grib2 2026-04-20 08:52 761K
20260420T06Z_MSC_RDPS_WindSpeed_IsbL-0850_RLatLon0.09_PT043H.grib2 2026-04-20 08:52 821K
20260420T06Z_MSC_RDPS_WindSpeed_IsbL-0875_RLatLon0.09_PT043H.grib2 2026-04-20 08:52 839K
20260420T06Z_MSC_RDPS_WindSpeed_IsbL-0900_RLatLon0.09_PT043H.grib2 2026-04-20 08:52 853K
20260420T06Z_MSC_RDPS_WindSpeed_IsbL-0925_RLatLon0.09_PT043H.grib2 2026-04-20 08:52 863K
20260420T06Z_MSC_RDPS_WindSpeed_IsbL-0950_RLatLon0.09_PT043H.grib2 2026-04-20 08:52 864K
20260420T06Z_MSC_RDPS_WindSpeed_IsbL-0970_RLatLon0.09_PT043H.grib2 2026-04-20 08:52 864K
20260420T06Z_MSC_RDPS_WindSpeed_IsbL-0985_RLatLon0.09_PT043H.grib2 2026-04-20 08:52 858K
20260420T06Z_MSC_RDPS_WindSpeed_IsbL-1000_RLatLon0.09_PT043H.grib2 2026-04-20 08:52 853K
20260420T06Z_MSC_RDPS_WindSpeed_IsbL-1015_RLatLon0.09_PT043H.grib2 2026-04-20 08:52 846K
20260420T06Z_MSC_RDPS_WindU_AGL-10m_RLatLon0.09_PT043H.grib2 2026-04-20 08:52 432K
20260420T06Z_MSC_RDPS_WindU_AGL-120m_RLatLon0.09_PT043H.grib2 2026-04-20 08:52 417K
20260420T06Z_MSC_RDPS_WindU_AGL-40m_RLatLon0.09_PT043H.grib2 2026-04-20 08:52 538K
20260420T06Z_MSC_RDPS_WindU_AGL-80m_RLatLon0.09_PT043H.grib2 2026-04-20 08:52 419K
20260420T06Z_MSC_RDPS_WindU_IsbL-0001_RLatLon0.09_PT043H.grib2 2026-04-20 08:52 237K
20260420T06Z_MSC_RDPS_WindU_IsbL-0005_RLatLon0.09_PT043H.grib2 2026-04-20 08:52 333K
20260420T06Z_MSC_RDPS_WindU_IsbL-0010_RLatLon0.09_PT043H.grib2 2026-04-20 08:52 347K
20260420T06Z_MSC_RDPS_WindU_IsbL-0020_RLatLon0.09_PT043H.grib2 2026-04-20 08:52 364K
20260420T06Z_MSC_RDPS_WindU_IsbL-0030_RLatLon0.09_PT043H.grib2 2026-04-20 08:52 363K
20260420T06Z_MSC_RDPS_WindU_IsbL-0050_RLatLon0.09_PT043H.grib2 2026-04-20 08:52 368K
20260420T06Z_MSC_RDPS_WindU_IsbL-0100_RLatLon0.09_PT043H.grib2 2026-04-20 08:52 452K
20260420T06Z_MSC_RDPS_WindU_IsbL-0150_RLatLon0.09_PT043H.grib2 2026-04-20 08:52 405K
20260420T06Z_MSC_RDPS_WindU_IsbL-0175_RLatLon0.09_PT043H.grib2 2026-04-20 08:52 429K
20260420T06Z_MSC_RDPS_WindU_IsbL-0200_RLatLon0.09_PT043H.grib2 2026-04-20 08:52 444K
20260420T06Z_MSC_RDPS_WindU_IsbL-0225_RLatLon0.09_PT043H.grib2 2026-04-20 08:52 447K
20260420T06Z_MSC_RDPS_WindU_IsbL-0250_RLatLon0.09_PT043H.grib2 2026-04-20 08:52 445K
20260420T06Z_MSC_RDPS_WindU_IsbL-0275_RLatLon0.09_PT043H.grib2 2026-04-20 08:52 356K
20260420T06Z_MSC_RDPS_WindU_IsbL-0300_RLatLon0.09_PT043H.grib2 2026-04-20 08:52 351K
20260420T06Z_MSC_RDPS_WindU_IsbL-0350_RLatLon0.09_PT043H.grib2 2026-04-20 08:52 357K
20260420T06Z_MSC_RDPS_WindU_IsbL-0400_RLatLon0.09_PT043H.grib2 2026-04-20 08:52 361K
20260420T06Z_MSC_RDPS_WindU_IsbL-0450_RLatLon0.09_PT043H.grib2 2026-04-20 08:52 468K
20260420T06Z_MSC_RDPS_WindU_IsbL-0500_RLatLon0.09_PT043H.grib2 2026-04-20 08:52 475K
20260420T06Z_MSC_RDPS_WindU_IsbL-0550_RLatLon0.09_PT043H.grib2 2026-04-20 08:52 479K
20260420T06Z_MSC_RDPS_WindU_IsbL-0600_RLatLon0.09_PT043H.grib2 2026-04-20 08:52 489K
20260420T06Z_MSC_RDPS_WindU_IsbL-0650_RLatLon0.09_PT043H.grib2 2026-04-20 08:52 503K
20260420T06Z_MSC_RDPS_WindU_IsbL-0700_RLatLon0.09_PT043H.grib2 2026-04-20 08:52 519K
20260420T06Z_MSC_RDPS_WindU_IsbL-0750_RLatLon0.09_PT043H.grib2 2026-04-20 08:52 531K
20260420T06Z_MSC_RDPS_WindU_IsbL-0800_RLatLon0.09_PT043H.grib2 2026-04-20 08:52 574K
20260420T06Z_MSC_RDPS_WindU_IsbL-0850_RLatLon0.09_PT043H.grib2 2026-04-20 08:52 625K
20260420T06Z_MSC_RDPS_WindU_IsbL-0875_RLatLon0.09_PT043H.grib2 2026-04-20 08:52 642K
20260420T06Z_MSC_RDPS_WindU_IsbL-0900_RLatLon0.09_PT043H.grib2 2026-04-20 08:52 651K
20260420T06Z_MSC_RDPS_WindU_IsbL-0925_RLatLon0.09_PT043H.grib2 2026-04-20 08:52 658K
20260420T06Z_MSC_RDPS_WindU_IsbL-0950_RLatLon0.09_PT043H.grib2 2026-04-20 08:52 656K
20260420T06Z_MSC_RDPS_WindU_IsbL-0970_RLatLon0.09_PT043H.grib2 2026-04-20 08:52 654K
20260420T06Z_MSC_RDPS_WindU_IsbL-0985_RLatLon0.09_PT043H.grib2 2026-04-20 08:52 791K
20260420T06Z_MSC_RDPS_WindU_IsbL-1000_RLatLon0.09_PT043H.grib2 2026-04-20 08:52 787K
20260420T06Z_MSC_RDPS_WindU_IsbL-1015_RLatLon0.09_PT043H.grib2 2026-04-20 08:52 782K
20260420T06Z_MSC_RDPS_WindV_AGL-10m_RLatLon0.09_PT043H.grib2 2026-04-20 08:52 434K
20260420T06Z_MSC_RDPS_WindV_AGL-120m_RLatLon0.09_PT043H.grib2 2026-04-20 08:52 418K
20260420T06Z_MSC_RDPS_WindV_AGL-40m_RLatLon0.09_PT043H.grib2 2026-04-20 08:52 539K
20260420T06Z_MSC_RDPS_WindV_AGL-80m_RLatLon0.09_PT043H.grib2 2026-04-20 08:52 420K
20260420T06Z_MSC_RDPS_WindV_IsbL-0001_RLatLon0.09_PT043H.grib2 2026-04-20 08:52 237K
20260420T06Z_MSC_RDPS_WindV_IsbL-0005_RLatLon0.09_PT043H.grib2 2026-04-20 08:52 330K
20260420T06Z_MSC_RDPS_WindV_IsbL-0010_RLatLon0.09_PT043H.grib2 2026-04-20 08:52 306K
20260420T06Z_MSC_RDPS_WindV_IsbL-0020_RLatLon0.09_PT043H.grib2 2026-04-20 08:52 328K
20260420T06Z_MSC_RDPS_WindV_IsbL-0030_RLatLon0.09_PT043H.grib2 2026-04-20 08:52 366K
20260420T06Z_MSC_RDPS_WindV_IsbL-0050_RLatLon0.09_PT043H.grib2 2026-04-20 08:52 365K
20260420T06Z_MSC_RDPS_WindV_IsbL-0100_RLatLon0.09_PT043H.grib2 2026-04-20 08:52 345K
20260420T06Z_MSC_RDPS_WindV_IsbL-0150_RLatLon0.09_PT043H.grib2 2026-04-20 08:52 399K
20260420T06Z_MSC_RDPS_WindV_IsbL-0175_RLatLon0.09_PT043H.grib2 2026-04-20 08:52 424K
20260420T06Z_MSC_RDPS_WindV_IsbL-0200_RLatLon0.09_PT043H.grib2 2026-04-20 08:52 341K
20260420T06Z_MSC_RDPS_WindV_IsbL-0225_RLatLon0.09_PT043H.grib2 2026-04-20 08:52 344K
20260420T06Z_MSC_RDPS_WindV_IsbL-0250_RLatLon0.09_PT043H.grib2 2026-04-20 08:52 343K
20260420T06Z_MSC_RDPS_WindV_IsbL-0275_RLatLon0.09_PT043H.grib2 2026-04-20 08:52 379K
20260420T06Z_MSC_RDPS_WindV_IsbL-0300_RLatLon0.09_PT043H.grib2 2026-04-20 08:52 373K
20260420T06Z_MSC_RDPS_WindV_IsbL-0350_RLatLon0.09_PT043H.grib2 2026-04-20 08:52 380K
20260420T06Z_MSC_RDPS_WindV_IsbL-0400_RLatLon0.09_PT043H.grib2 2026-04-20 08:52 361K
20260420T06Z_MSC_RDPS_WindV_IsbL-0450_RLatLon0.09_PT043H.grib2 2026-04-20 08:52 365K
20260420T06Z_MSC_RDPS_WindV_IsbL-0500_RLatLon0.09_PT043H.grib2 2026-04-20 08:52 475K
20260420T06Z_MSC_RDPS_WindV_IsbL-0550_RLatLon0.09_PT043H.grib2 2026-04-20 08:52 480K
20260420T06Z_MSC_RDPS_WindV_IsbL-0600_RLatLon0.09_PT043H.grib2 2026-04-20 08:52 489K
20260420T06Z_MSC_RDPS_WindV_IsbL-0650_RLatLon0.09_PT043H.grib2 2026-04-20 08:52 502K
20260420T06Z_MSC_RDPS_WindV_IsbL-0700_RLatLon0.09_PT043H.grib2 2026-04-20 08:52 519K
20260420T06Z_MSC_RDPS_WindV_IsbL-0750_RLatLon0.09_PT043H.grib2 2026-04-20 08:52 529K
20260420T06Z_MSC_RDPS_WindV_IsbL-0800_RLatLon0.09_PT043H.grib2 2026-04-20 08:52 572K
20260420T06Z_MSC_RDPS_WindV_IsbL-0850_RLatLon0.09_PT043H.grib2 2026-04-20 08:52 623K
20260420T06Z_MSC_RDPS_WindV_IsbL-0875_RLatLon0.09_PT043H.grib2 2026-04-20 08:52 640K
20260420T06Z_MSC_RDPS_WindV_IsbL-0900_RLatLon0.09_PT043H.grib2 2026-04-20 08:52 650K
20260420T06Z_MSC_RDPS_WindV_IsbL-0925_RLatLon0.09_PT043H.grib2 2026-04-20 08:52 657K
20260420T06Z_MSC_RDPS_WindV_IsbL-0950_RLatLon0.09_PT043H.grib2 2026-04-20 08:52 656K
20260420T06Z_MSC_RDPS_WindV_IsbL-0970_RLatLon0.09_PT043H.grib2 2026-04-20 08:52 655K
20260420T06Z_MSC_RDPS_WindV_IsbL-0985_RLatLon0.09_PT043H.grib2 2026-04-20 08:52 653K
20260420T06Z_MSC_RDPS_WindV_IsbL-1000_RLatLon0.09_PT043H.grib2 2026-04-20 08:52 790K
20260420T06Z_MSC_RDPS_WindV_IsbL-1015_RLatLon0.09_PT043H.grib2 2026-04-20 08:52 784K